sat.trackr.live / text

‹ back to catalog

STARLINK-3563

NORAD 51858 · 2022-022G

PAYLOAD ACTIVE UNKNOWN

§ Identity

Operator
Country
US
Launch date
2022-03-03
Launch site
AFETR
Launch vehicle
Mass (kg)
RCS (m²)

Purposes: comms

External: N2YO · Heavens-Above · Gunter

§ Orbital elements

Epoch: 2026-09-19T12:30:29.074176Z

Period
93.85 min
Inclination
53.1587°
Eccentricity
0.0001653
Mean motion
15.34392048 rev/d
Perigee alt
461.6 km
Apogee alt
463.9 km
Semi-major
6,840.9 km
B*
-3.3099e-5
RAAN
214.2612°
Arg perigee
85.0024°
Mean anomaly
275.1167°
Rev number
25,248

§ Raw data

STARLINK-35631 51858U 22022G   26262.52116984 -.00001494  00000+0 -33099-4 0  99962 51858  53.1587 214.2612 0001653  85.0024 275.1167 15.34392048252489

JSON: /api/v1/satellites/51858 · /tle

For live sub-satellite position, see the globe view (requires WebGL).

§ Visibility from observer

Set your observer location to see the next 7 days of passes ≥ 10°. The values pass through the URL so the page stays shareable.

No JS? Fill the form by hand. The geolocation button needs JavaScript.